WESTFORD NEEDLES, 2949

Orbit data source: Space-Track

WESTFORD NEEDLES, 2949 is space debris in LEO originally from a launch on Thu, 09 May 1963 UTC launched from the Air Force Western Test Range (AFWTR). Debris objects in space refer to the collection of defunct objects orbiting the Earth. Examples of debris include non-operational satellites, rocket bodies, and fragments generated from explosions, collisions, or faulty payload assembly.

Loading next visibility...
WESTFORD NEEDLES details
Identifier
2949, 1963-014AS
Orbit
LEO
Last TLE update1 day ago
Origin
Flag of USUSAF SSD (US)
ManufacturerUnknown
MissionSpacecraft
Bus & MotorUnknown
MassUnknown
Launch date (UTC)
1963-05-09 (62 years ago)
Launch vehicleUnknown
Launch site
Air Force Western Test Range (AFWTR)
Object type
Payload
Rocket body
Debris
Shape & HBRUnknown
Radar Cross SectionMedium (>0.1 m² and <1 m²)

Expand to show TLE details & history

TLE from 1 day ago
0 WESTFORD NEEDLES
1  2949U 63014AS  24355.59099157  .00003900  00000-0  14938+0 0  9998
2  2949  85.5664 100.2710 2095840   3.1987   6.2031  8.82626500265065
Epoch: 2024-12-20T14:11Z
Definitive object data (Epoch: 2024-12-20T14:11:01.671Z)
Latitude12.82517°
Longitude158.866°
Altitude1,460.184 km
Speed7.839 km/s
True Right ascension06h 45m 06s
True Declination12° 45' 27"
Sunlit
Object was in full shadow at TLE epoch
Visualization TLE readout
Latitude-23.81631°
Longitude-20.38205°
Altitude5,371.671 km
Speed5.251 km/s
Apparent Right ascension20h 34m 42s
Apparent Declination-45° 09' 34"
Sunlit
Object is in daylight
Visualization observer readout
Local Sidereal Time15:15:07
Azimuth131.916° SE
Elevation-21.107°
Doppler factor1
Orbital elements
Apogee altitude5,582.403 km
Perigee altitude1,437.61 km
Semi-major axis9,888.144 km
Eccentricity0.209584
Inclination85.5664°
RAAN100.271°
Arg. of periapsis3.1987°
True anomaly9.69227°
Mean anomaly6.2031°
Eccentric anomaly7.84141°
Mean motion2.20735 °/min
BSTAR0.14938
Orbital period163.09 mins
Loading maneuver chart data...

WESTFORD NEEDLES Visibility forecast

Observer location: undefined°, undefined

Span
Click to sort rows by Start time (UTC) header in descending order
Start Az.
Max El. time (UTC)
Max El. Az.
Max El.
End time (UTC)
End Az.
50 mins2024-12-21 17:53:42.562Z1.469° NNE2024-12-21 18:13:42.562Z81.782° E41.091°2024-12-21 18:43:42.562Z161.022° S
45 mins2024-12-21 20:38:42.562Z346.64° N2024-12-21 20:56:42.562Z280.853° WNW37.75°2024-12-21 21:23:42.562Z217.597° SW
17 mins2024-12-22 07:00:42.562Z154.175° SSE2024-12-22 07:06:42.562Z92.464° ESE39.237°2024-12-22 07:17:42.562Z10.343° NNE
13 mins2024-12-22 09:47:42.562Z261.795° W2024-12-22 09:52:42.562Z300.381° NW20.159°2024-12-22 10:00:42.562Z345.919° N
31 mins2024-12-22 15:41:42.562Z18.075° NNE2024-12-22 15:54:42.562Z59° ENE19.861°2024-12-22 16:12:42.562Z101.444° ESE
|